Weather History for Escanaba, MI

Change the Weather History Date:

Thursday, April 10, 2014

  Actual Average Record
Temperature  
Mean Temperature 48 °F -  
Max Temperature 60 °F 42 °F 60 °F (1985)
Min Temperature 37 °F 29 °F 12 °F (1997)
Degree Days  
Heating Degree Days 16    
Moisture  
Dew Point 26 °F    
Average Humidity 42    
Maximum Humidity 75    
Minimum Humidity 20    
Precipitation  
Precipitation 0.00 in - - ()
Sea Level Pressure  
Sea Level Pressure 29.58 in    
Wind  
Wind Speed 11 mph (West)    
Max Wind Speed 26 mph    
Max Gust Speed 32 mph    
Visibility 10 miles    
Events      
Averages and records for this station are not official NWS values.
T = Trace of Precipitation, MM = Missing Value Source: NWS Daily Summary

Daily Weather History Graph

Daily Weather History Graph

Search for Another Location

Airport:

Trip Planner

Search our weather history database for the weather conditions in past years. The results will help you decide how hot, cold, wet, or windy it might be!

Date:

Astronomy

Apr. 10, 2014 Rise Set
Actual Time 7:11 AM EDT 8:28 PM EDT
Civil Twilight 6:40 AM EDT 8:59 PM EDT
Nautical Twilight 6:04 AM EDT 9:36 PM EDT
Astronomical Twilight 5:24 AM EDT 10:15 PM EDT
Moon 3:59 PM EDT (4/10) 4:47 AM EDT (4/10)
Length of Visible Light 14h 18m
Length of Day
13h 16m
Waxing Gibbous, 79% of the Moon is Illuminated
Apr 10
Waxing Gibbous
Apr 15
Full
Apr 22
Last Quarter
Apr 29
New
May 6
First Quarter

Hourly Weather History & Observations

Time (EDT) Temp. Windchill Dew Point Humidity Pressure Visibility Wind Dir Wind Speed Gust Speed Precip Events Conditions
12:15 AM 37.4 °F 29.3 °F 30.2 °F 75% 29.55 in 10.0 mi SSW 12.7 mph - N/A   Clear
12:35 AM 37.4 °F 30.3 °F 30.2 °F 75% 29.54 in 10.0 mi SSW 10.4 mph - N/A   Clear
12:55 AM 37.4 °F 29.8 °F 30.2 °F 75% 29.53 in 10.0 mi SSW 11.5 mph - N/A   Clear
1:15 AM 39.2 °F 32.5 °F 30.2 °F 70% 29.52 in 10.0 mi South 10.4 mph - N/A   Clear
1:35 AM 39.2 °F 33.0 °F 30.2 °F 70% 29.51 in 10.0 mi South 9.2 mph - N/A   Clear
1:55 AM 41.0 °F 35.8 °F 30.2 °F 65% 29.50 in 10.0 mi SSW 8.1 mph - N/A   Clear
2:15 AM 42.8 °F 37.0 °F 30.2 °F 61% 29.49 in 10.0 mi SSW 10.4 mph - N/A   Clear
2:35 AM 44.6 °F 39.7 °F 30.2 °F 57% 29.49 in 10.0 mi SSW 9.2 mph - N/A   Clear
2:55 AM 46.4 °F 41.5 °F 30.2 °F 53% 29.48 in 10.0 mi SSW 10.4 mph - N/A   Clear
3:15 AM 46.4 °F 42.4 °F 30.2 °F 53% 29.47 in 10.0 mi SSW 8.1 mph - N/A   Clear
3:35 AM 46.4 °F 41.9 °F 30.2 °F 53% 29.46 in 10.0 mi SSW 9.2 mph - N/A   Partly Cloudy
3:55 AM 46.4 °F 41.1 °F 30.2 °F 53% 29.44 in 10.0 mi SSW 11.5 mph - N/A   Scattered Clouds
4:15 AM 48.2 °F - 30.2 °F 50% 29.44 in 10.0 mi SSW 11.5 mph 19.6 mph N/A   Overcast
4:35 AM 50.0 °F - 30.2 °F 47% 29.42 in 10.0 mi South 9.2 mph - N/A   Overcast
4:55 AM 48.2 °F - 30.2 °F 50% 29.43 in 10.0 mi SW 11.5 mph 21.9 mph N/A   Mostly Cloudy
5:15 AM 50.0 °F - 30.2 °F 47% 29.43 in 10.0 mi WSW 12.7 mph 19.6 mph N/A   Partly Cloudy
5:35 AM 51.8 °F - 30.2 °F 44% 29.43 in 10.0 mi WSW 11.5 mph 18.4 mph N/A   Partly Cloudy
5:55 AM 51.8 °F - 30.2 °F 44% 29.43 in 10.0 mi WSW 12.7 mph 19.6 mph N/A   Clear
6:15 AM 50.0 °F - 30.2 °F 47% 29.44 in 10.0 mi WSW 10.4 mph - N/A   Clear
6:35 AM 50.0 °F - 30.2 °F 47% 29.44 in 10.0 mi WSW 9.2 mph - N/A   Scattered Clouds
6:55 AM 50.0 °F - 30.2 °F 47% 29.46 in 10.0 mi WSW 10.4 mph - N/A   Mostly Cloudy
7:15 AM 48.2 °F - 32.0 °F 54% 29.48 in 10.0 mi WSW 10.4 mph - N/A   Partly Cloudy
7:35 AM 48.2 °F - 32.0 °F 54% 29.49 in 10.0 mi West 10.4 mph - N/A   Mostly Cloudy
7:55 AM 48.2 °F - 32.0 °F 54% 29.50 in 10.0 mi West 8.1 mph - N/A   Partly Cloudy
8:15 AM 48.2 °F - 33.8 °F 58% 29.51 in 10.0 mi WNW 10.4 mph - N/A   Clear
8:35 AM 48.2 °F - 33.8 °F 58% 29.52 in 10.0 mi West 8.1 mph - N/A   Mostly Cloudy
8:55 AM 48.2 °F - 33.8 °F 58% 29.52 in 10.0 mi WNW 10.4 mph 16.1 mph N/A   Overcast
9:15 AM 48.2 °F - 33.8 °F 58% 29.53 in 10.0 mi WNW 5.8 mph - N/A   Overcast
9:35 AM 48.2 °F - 33.8 °F 58% 29.54 in 10.0 mi WNW 8.1 mph - N/A   Overcast
9:55 AM 48.2 °F - 33.8 °F 58% 29.54 in 10.0 mi West 4.6 mph - N/A   Overcast
10:15 AM 48.2 °F - 33.8 °F 58% 29.53 in 10.0 mi WNW 4.6 mph - N/A   Overcast
10:35 AM 48.2 °F - 33.8 °F 58% 29.53 in 10.0 mi West 6.9 mph - N/A   Overcast
10:55 AM 48.2 °F - 33.8 °F 58% 29.54 in 10.0 mi West 8.1 mph - N/A   Overcast
11:15 AM 50.0 °F - 33.8 °F 54% 29.54 in 10.0 mi West 10.4 mph - N/A   Overcast
11:35 AM 50.0 °F - 32.0 °F 50% 29.55 in 10.0 mi West 10.4 mph 17.3 mph N/A   Overcast
11:55 AM 51.8 °F - 30.2 °F 44% 29.55 in 10.0 mi WNW 11.5 mph 17.3 mph N/A   Scattered Clouds
12:15 PM 53.6 °F - 28.4 °F 38% 29.56 in 10.0 mi West 10.4 mph 19.6 mph N/A   Clear
12:35 PM 55.4 °F - 24.8 °F 31% 29.55 in 10.0 mi West 18.4 mph 23.0 mph N/A   Clear
12:55 PM 55.4 °F - 23.0 °F 29% 29.54 in 10.0 mi WNW 20.7 mph 25.3 mph N/A   Clear
1:15 PM 55.4 °F - 23.0 °F 29% 29.56 in 10.0 mi WNW 15.0 mph 24.2 mph N/A   Clear
1:35 PM 57.2 °F - 23.0 °F 27% 29.56 in 10.0 mi West 16.1 mph 23.0 mph N/A   Clear
1:55 PM 57.2 °F - 23.0 °F 27% 29.56 in 10.0 mi West 16.1 mph 23.0 mph N/A   Clear
2:15 PM 57.2 °F - 21.2 °F 25% 29.56 in 10.0 mi West 19.6 mph 26.5 mph N/A   Clear
2:35 PM 57.2 °F - 23.0 °F 27% 29.57 in 10.0 mi WSW 17.3 mph 23.0 mph N/A   Clear
2:55 PM 59.0 °F - 23.0 °F 25% 29.57 in 10.0 mi WNW 16.1 mph 25.3 mph N/A   Clear
3:15 PM 59.0 °F - 23.0 °F 25% 29.57 in 10.0 mi West 15.0 mph 25.3 mph N/A   Clear
3:35 PM 60.8 °F - 23.0 °F 23% 29.57 in 10.0 mi West 21.9 mph 32.2 mph N/A   Clear
3:55 PM 59.0 °F - 23.0 °F 25% 29.57 in 10.0 mi West 26.5 mph 29.9 mph N/A   Clear
4:15 PM 59.0 °F - 21.2 °F 23% 29.56 in 10.0 mi WNW 24.2 mph 32.2 mph N/A   Clear
4:35 PM 59.0 °F - 21.2 °F 23% 29.56 in 10.0 mi WNW 21.9 mph 31.1 mph N/A   Clear
4:55 PM 60.8 °F - 21.2 °F 22% 29.58 in 10.0 mi West 18.4 mph 27.6 mph N/A   Clear
5:15 PM 60.8 °F - 21.2 °F 22% 29.58 in 10.0 mi West 19.6 mph - N/A   Clear
5:35 PM 60.8 °F - 21.2 °F 22% 29.59 in 10.0 mi West 18.4 mph 24.2 mph N/A   Partly Cloudy
5:55 PM 59.0 °F - 19.4 °F 22% 29.60 in 10.0 mi WNW 17.3 mph 28.8 mph N/A   Partly Cloudy
6:15 PM 59.0 °F - 19.4 °F 22% 29.62 in 10.0 mi WNW 16.1 mph 28.8 mph N/A   Clear
6:35 PM 59.0 °F - 17.6 °F 20% 29.63 in 10.0 mi WNW 19.6 mph 27.6 mph N/A   Clear
6:55 PM 57.2 °F - 19.4 °F 23% 29.65 in 10.0 mi WNW 17.3 mph 25.3 mph N/A   Clear
7:15 PM 57.2 °F - 19.4 °F 23% 29.67 in 10.0 mi WNW 18.4 mph 26.5 mph N/A   Clear
7:35 PM 55.4 °F - 15.8 °F 21% 29.68 in 10.0 mi WNW 17.3 mph 24.2 mph N/A   Clear
7:55 PM 55.4 °F - 15.8 °F 21% 29.71 in 10.0 mi NW 12.7 mph 23.0 mph N/A   Clear
8:15 PM 53.6 °F - 14.0 °F 21% 29.72 in 10.0 mi NW 13.8 mph 19.6 mph N/A   Clear
8:35 PM 51.8 °F - 14.0 °F 22% 29.74 in 10.0 mi NW 8.1 mph - N/A   Clear
8:55 PM 50.0 °F - 15.8 °F 26% 29.75 in 10.0 mi WNW 6.9 mph - N/A   Clear
9:15 PM 48.2 °F - 15.8 °F 27% 29.78 in 10.0 mi WNW 5.8 mph - N/A   Clear
9:35 PM 46.4 °F 43.5 °F 15.8 °F 29% 29.80 in 10.0 mi WNW 5.8 mph - N/A   Clear
9:55 PM 44.6 °F 42.2 °F 15.8 °F 31% 29.82 in 10.0 mi WNW 4.6 mph - N/A   Clear
10:15 PM 42.8 °F 40.1 °F 15.8 °F 34% 29.82 in 10.0 mi West 4.6 mph - N/A   Clear
10:35 PM 37.4 °F - 17.6 °F 45% 29.83 in 10.0 mi Calm Calm - N/A   Clear
10:55 PM 37.4 °F 32.8 °F 17.6 °F 45% 29.83 in 10.0 mi WNW 5.8 mph - N/A   Clear
11:15 PM 39.2 °F 35.9 °F 17.6 °F 42% 29.84 in 10.0 mi West 4.6 mph - N/A   Clear
11:35 PM 37.4 °F 34.9 °F 17.6 °F 45% 29.84 in 10.0 mi West 3.5 mph - N/A   Clear
11:55 PM 37.4 °F 32.8 °F 17.6 °F 45% 29.85 in 10.0 mi West 5.8 mph - N/A   Clear